Le nostre stazioni meteo in Italia

Pubblicità
Il mio iltempo24.it
Messina, Italia (16420): Temperatura & dewpoint: 13.06.2019 01:00:00 - 19.06.2019 01:00:00 (CEST)Messina, Italia (16420): velocità del vento: 13.06.2019 01:00:00 - 19.06.2019 01:00:00 (CEST)Messina, Italia (16420): direzione del vento: 13.06.2019 01:00:00 - 19.06.2019 01:00:00 (CEST)Messina, Italia (16420): reduced air pressure: 13.06.2019 01:00:00 - 19.06.2019 01:00:00 (CEST)Messina, Italia (16420): visibility: 13.06.2019 01:00:00 - 19.06.2019 01:00:00 (CEST)Messina, Italia (16420): ore di luce: 13.06.2019 01:00:00 - 19.06.2019 01:00:00 (CEST)
Data & Tempo tt [°C] td [°C] ff [km/h] ff [kn] dd ppp [hPa] vv [km] sd [min]
19.06.2019 01:00:00 24,0 21,3 8 4 NNE 1014,5 10 -
19.06.2019 00:00:00 24,0 21,1 8 4 NNE 1014,5 10 -
18.06.2019 23:00:00 24,0 20,3 9 5 NNE 1014,6 10 -
18.06.2019 22:00:00 24,0 20,3 8 4 NE 1014,6 10 -
18.06.2019 21:00:00 24,4 20,7 5 3 NO 1013,7 10 -
18.06.2019 20:00:00 24,8 20,3 4 2 ONO 1013,5 10 0
18.06.2019 19:00:00 25,0 20,3 11 6 NNO 1013,5 10 12
18.06.2019 18:00:00 25,8 20,8 15 8 ENE 1013,2 10 60
18.06.2019 17:00:00 26,6 20,7 15 8 ENE 1013,2 10 60
18.06.2019 16:00:00 27,4 20,2 16 9 N 1013,4 10 60
18.06.2019 15:00:00 27,6 20,2 16 9 NE 1013,3 10 60
18.06.2019 14:00:00 27,2 20,0 22 12 ENE 1013,4 10 60
18.06.2019 13:00:00 27,0 20,8 22 12 ENE 1013,4 10 60
18.06.2019 12:00:00 26,8 21,6 21 11 ENE 1013,5 10 60
18.06.2019 11:00:00 26,2 21,4 18 10 ENE 1013,4 10 60
18.06.2019 10:00:00 25,2 20,7 13 7 NNE 1013,4 10 60
18.06.2019 09:00:00 25,0 20,0 9 5 NNE 1013,6 10 60
18.06.2019 08:00:00 24,0 20,7 9 5 N 1013,2 10 42
18.06.2019 07:00:00 23,0 20,5 8 4 NNE 1013,1 10 0
18.06.2019 06:00:00 23,0 20,9 8 4 N 1012,9 10 -
18.06.2019 05:00:00 23,0 21,3 8 4 NNE 1012,8 10 -
18.06.2019 04:00:00 23,0 21,1 9 5 NNE 1012,8 10 -
18.06.2019 03:00:00 23,2 21,8 8 4 N 1012,9 10 -
18.06.2019 02:00:00 23,6 21,9 8 4 NE 1013,3 10 -
18.06.2019 01:00:00 24,0 21,5 9 5 NNE 1013,3 10 -
18.06.2019 00:00:00 24,0 21,7 8 4 NNE 1013,3 10 -
17.06.2019 23:00:00 24,0 21,7 4 2 NNE 1013,2 10 -
17.06.2019 22:00:00 24,4 22,1 9 5 NE 1013,0 10 -
17.06.2019 21:00:00 24,8 21,1 5 3 N 1012,7 10 -
17.06.2019 20:00:00 25,0 21,1 11 6 N 1012,6 10 48
17.06.2019 19:00:00 26,2 21,1 16 9 N 1012,6 10 60
17.06.2019 18:00:00 26,8 22,1 16 9 NE 1012,5 10 60
17.06.2019 17:00:00 26,8 21,5 18 10 ENE 1012,7 10 60
17.06.2019 16:00:00 26,8 21,5 18 10 NE 1013,0 10 60
17.06.2019 15:00:00 27,2 21,6 21 11 NE 1013,1 10 60
17.06.2019 14:00:00 27,4 19,7 24 13 ENE 1013,2 10 60
17.06.2019 13:00:00 27,4 19,4 22 12 NE 1013,4 10 60
17.06.2019 12:00:00 27,4 17,4 22 12 NE 1013,5 10 60
17.06.2019 11:00:00 27,4 19,1 15 8 NNE 1013,3 10 60
17.06.2019 10:00:00 25,4 19,0 16 9 NNE 1013,3 10 60
17.06.2019 09:00:00 24,6 19,7 16 9 NNE 1013,5 10 60
17.06.2019 08:00:00 23,0 20,0 0 0 N 1013,3 10 60
17.06.2019 07:00:00 22,8 20,3 11 6 N 1013,3 10 12
17.06.2019 06:00:00 22,8 20,5 8 4 ENE 1013,3 10 0
17.06.2019 05:00:00 22,8 20,3 13 7 NNE 1013,2 10 -
17.06.2019 04:00:00 22,8 20,0 9 5 N 1013,5 10 -
17.06.2019 03:00:00 23,2 20,9 13 7 NE 1013,5 10 -
17.06.2019 02:00:00 23,6 18,9 8 4 NNE 1013,5 10 -
17.06.2019 01:00:00 23,6 19,3 11 6 NE 1013,8 10 -
17.06.2019 00:00:00 23,6 21,1 9 5 NNE 1014,0 10 -
16.06.2019 23:00:00 23,6 21,5 9 5 NNE 1014,2 10 -
16.06.2019 22:00:00 23,8 21,3 11 6 N 1014,2 10 -
16.06.2019 21:00:00 24,0 21,7 15 8 NNE 1014,1 10 -
16.06.2019 20:00:00 24,4 21,7 13 7 NE 1013,8 10 0
16.06.2019 19:00:00 25,8 21,0 9 5 NNE 1013,4 10 60
16.06.2019 18:00:00 26,4 20,0 13 7 NE 1013,4 10 60
16.06.2019 17:00:00 28,0 19,0 9 5 NNE 1013,6 10 60
16.06.2019 16:00:00 27,4 20,0 21 11 NE 1014,0 10 60
16.06.2019 15:00:00 28,0 19,3 9 5 NNE 1014,1 10 60
16.06.2019 14:00:00 27,4 20,0 18 10 NE 1014,4 10 60
16.06.2019 13:00:00 27,0 19,1 13 7 NNE 1014,4 10 60
16.06.2019 12:00:00 26,6 19,5 9 5 N 1014,4 10 60
16.06.2019 11:00:00 25,2 19,8 13 7 N 1014,4 10 60
16.06.2019 10:00:00 25,0 20,3 13 7 NNE 1014,2 10 60
16.06.2019 09:00:00 25,0 20,3 11 6 NE 1014,2 10 60
16.06.2019 08:00:00 23,6 20,3 9 5 NE 1014,3 10 24
16.06.2019 07:00:00 23,2 20,0 15 8 NE 1014,3 10 0
16.06.2019 06:00:00 23,4 20,3 8 4 NNE 1014,3 10 0
16.06.2019 05:00:00 23,6 21,1 13 7 NE 1014,3 10 -
16.06.2019 04:00:00 23,6 21,3 11 6 NNE 1014,3 10 -
16.06.2019 03:00:00 24,0 21,5 9 5 NNE 1014,3 10 -
16.06.2019 02:00:00 24,0 21,9 11 6 NNO 1014,8 10 -
16.06.2019 01:00:00 24,0 22,4 13 7 NNO 1014,5 10 -
16.06.2019 00:00:00 25,0 22,3 13 7 N 1014,3 10 -
15.06.2019 23:00:00 25,0 21,5 8 4 NNE 1014,3 10 -
15.06.2019 22:00:00 25,0 21,1 13 7 N 1013,9 10 -
15.06.2019 21:00:00 25,4 21,1 13 7 N 1013,7 10 -
15.06.2019 20:00:00 26,4 22,5 11 6 NNO 1014,0 10 0
15.06.2019 19:00:00 27,0 23,3 9 5 N 1014,1 10 60
15.06.2019 18:00:00 28,6 22,6 15 8 ENE 1014,1 10 60
15.06.2019 17:00:00 29,0 20,2 9 5 ENE 1014,1 10 60
15.06.2019 16:00:00 29,0 17,5 11 6 NNO 1014,1 10 48
15.06.2019 15:00:00 28,8 15,7 13 7 N 1014,2 10 30
15.06.2019 14:00:00 27,8 21,3 16 9 NE 1014,4 10 60
15.06.2019 13:00:00 27,8 22,3 16 9 NE 1014,7 10 60
15.06.2019 12:00:00 26,8 22,7 15 8 NE 1014,8 10 60
15.06.2019 11:00:00 26,0 22,1 16 9 NE 1015,1 10 60
15.06.2019 10:00:00 25,8 19,2 13 7 NE 1015,0 20 60
15.06.2019 09:00:00 24,2 19,5 9 5 NE 1014,6 20 24
15.06.2019 08:00:00 24,0 18,7 8 4 NNE 1014,4 20 0
15.06.2019 07:00:00 25,0 16,7 11 6 NNE 1014,2 20 0
15.06.2019 06:00:00 23,6 19,5 11 6 NNE 1014,1 20 -
15.06.2019 05:00:00 25,8 17,5 13 7 N 1014,3 10 -
15.06.2019 04:00:00 24,0 20,3 8 4 NNE 1015,0 10 -
15.06.2019 03:00:00 24,0 20,1 9 5 NNE 1015,4 10 -
15.06.2019 02:00:00 24,8 20,1 11 6 NE 1016,3 10 -
15.06.2019 01:00:00 24,8 19,4 11 6 N 1016,4 10 -
15.06.2019 00:00:00 23,0 20,5 5 3 SO 1016,7 10 -
14.06.2019 23:00:00 24,0 20,1 2 1 OSO 1016,7 10 -
14.06.2019 22:00:00 24,4 20,5 5 3 OSO 1016,4 10 -
14.06.2019 21:00:00 24,8 20,5 5 3 SSO 1016,3 10 -
14.06.2019 20:00:00 24,8 20,7 9 5 SSO 1015,4 10 12
14.06.2019 19:00:00 25,8 20,8 11 6 SSO 1015,9 10 60
14.06.2019 18:00:00 26,2 20,8 13 7 SSO 1015,8 10 60
14.06.2019 17:00:00 26,4 20,5 15 8 SSO 1016,0 10 60
14.06.2019 16:00:00 26,2 20,3 15 8 SSO 1016,0 10 60
14.06.2019 15:00:00 26,2 18,4 16 9 SSO 1016,2 10 60
14.06.2019 14:00:00 27,0 11,9 13 7 SSO 1016,3 10 60
14.06.2019 13:00:00 26,8 11,3 11 6 S 1016,2 10 60
14.06.2019 12:00:00 27,4 17,3 9 5 SE 1016,2 10 60
14.06.2019 11:00:00 25,4 20,9 8 4 ENE 1016,3 10 60
14.06.2019 10:00:00 24,8 21,5 11 6 NE 1015,8 4,0 60
14.06.2019 09:00:00 24,2 21,3 9 5 NE 1015,6 4,0 60
14.06.2019 08:00:00 22,2 20,5 8 4 ENE 1015,3 4,0 60
14.06.2019 07:00:00 22,0 19,0 4 2 ENE 1015,3 4,0 60
14.06.2019 06:00:00 21,0 18,4 2 1 NO 1015,4 4,0 0
14.06.2019 05:00:00 21,4 20,6 0 0 N 1015,1 4,0 -
14.06.2019 04:00:00 22,0 20,7 2 1 O 1015,3 10 -
14.06.2019 03:00:00 22,4 21,0 0 0 N 1015,3 10 -
14.06.2019 02:00:00 24,0 19,9 5 3 N 1015,4 10 -
14.06.2019 01:00:00 23,4 17,6 11 6 NE 1015,3 10 -
14.06.2019 00:00:00 25,0 13,9 8 4 N 1015,3 10 -
13.06.2019 23:00:00 24,0 18,2 5 3 NNE 1015,4 10 -
13.06.2019 22:00:00 25,0 12,9 8 4 N 1015,1 10 -
13.06.2019 21:00:00 25,0 14,8 9 5 NNO 1014,5 10 -
13.06.2019 20:00:00 24,2 18,8 11 6 NE 1014,3 10 36
13.06.2019 19:00:00 25,2 18,9 16 9 NE 1014,1 10 60
13.06.2019 18:00:00 25,8 18,7 21 11 NE 1014,1 10 60
13.06.2019 17:00:00 25,6 19,7 24 13 NE 1014,2 10 60
13.06.2019 16:00:00 26,0 20,3 22 12 NE 1014,2 10 60
13.06.2019 15:00:00 26,0 20,1 18 10 NE 1014,2 10 60
13.06.2019 14:00:00 26,4 20,0 21 11 NE 1014,3 10 60
13.06.2019 13:00:00 25,8 20,4 24 13 NE 1014,4 10 60
13.06.2019 12:00:00 25,6 20,2 22 12 NE 1014,4 10 60
13.06.2019 11:00:00 26,6 18,2 18 10 NE 1014,3 10 60
13.06.2019 10:00:00 25,8 18,7 13 7 NE 1014,4 10 60
13.06.2019 09:00:00 23,8 18,0 15 8 N 1014,3 10 60
13.06.2019 08:00:00 22,8 18,1 13 7 NO 1014,1 10 48
13.06.2019 07:00:00 22,8 17,0 15 8 NNO 1013,3 10 6
13.06.2019 06:00:00 21,6 19,9 9 5 NE 1013,1 10 -
13.06.2019 05:00:00 22,4 19,8 11 6 NNE 1013,1 10 -
13.06.2019 04:00:00 23,0 18,3 11 6 NE 1013,1 10 -
13.06.2019 03:00:00 22,2 18,6 5 3 ENE 1013,1 10 -
13.06.2019 02:00:00 23,0 20,3 9 5 ENE 1013,1 10 -
13.06.2019 01:00:00 23,0 19,2 0 0 N 1013,1 10 -

tt = Temperatura
td = dewpoint
ff = velocità del vento
dd = direzione del vento
ppp = reduced air pressure
vv = visibility
sd = ore di luce

Stazioni seguenti

WeatherPro
AMSI
MeteoEarth